www.pogodaiklimat.ru

Погода и климат >> Архив погоды >> Австралия >> Северная территория >> Джервойс


ПОГОДА в Джервойсе

  • Прогноз погоды в Джервойсе
  • Монитор погоды в Джервойсе

АРХИВ ПОГОДЫ в Джервойсе

Время (UTC), дата Ветер
(напр.,м/с)
 
Видим.   Явления Облачность Т
(С)
Тd
(С)
f
(%)
Тe
(С)
Тes
(С)
Комфортность P
(гПа)
Po
(гПа)
Тmin
(С)
Tmax
(С)
R
(мм)
R24
(мм)
S
(см)
11 17.01 СВ 3 н/о н/о +36.0 +3.3 13 +33 +33 жарко 1003.9 967.7
12 17.01 СВ 2 н/о н/о +34.7 +3.3 14 +32 +32 жарко 1004.1 968.0
14 17.01 С 4 н/о н/о +34.4 +5.0 16 +32 +32 жарко 1004.7 968.5 +44.0
15 17.01 СВ 4 н/о н/о +33.8 +5.4 17 +31 +31 жарко 1004.5 968.3
17 17.01 С 3 н/о н/о +31.1 +6.2 21 +29 +29 жарко 1003.5 967.3
18 17.01 С 2 н/о н/о +29.4 +6.1 23 +28 +28 жарко 1003.5 967.4
20 17.01 СЗ 3 н/о н/о +29.9 +7.2 24 +29 +29 жарко 1004.9 968.7
21 17.01 С 3 н/о н/о +30.4 +7.0 23 +29 +29 жарко 1005.5 969.3
23 17.01 С 6 50 км ясно +39.1 +5.7 13 +36 +40 очень
жарко
1006.0 969.7
00 18.01 С 7 н/о н/о +39.7 +5.0 12 +37 +37 очень
жарко
1005.9 969.6
02 18.01 С 7 н/о н/о +43.4 +3.7 9 +40 +40 очень
жарко
1005.2 969.0 +28.1
03 18.01 С 6 н/о н/о +42.5 +3.0 9 +39 +39 очень
жарко
1004.7 968.5
05 18.01 СВ 5 н/о н/о +43.4 +3.7 9 +40 +40 очень
жарко
1003.2 967.0
06 18.01 В 4 н/о н/о +43.8 +2.3 8 +40 +40 очень
жарко
1002.8 966.7
08 18.01 В 12 н/о н/о +40.1 +6.4 13 +37 +37 очень
жарко
1003.2 967.0
09 18.01 СВ 11 н/о н/о +41.3 +2.1 9 +38 +38 очень
жарко
1003.0 966.9
11 18.01 СВ 6 н/о н/о +37.8 +6.7 15 +35 +35 очень
жарко
1005.6 969.3
12 18.01 СВ 4 н/о н/о +37.4 +5.4 14 +35 +35 очень
жарко
1005.6 969.4
14 18.01 СВ 3 н/о н/о +35.3 +7.4 18 +33 +33 жарко 1006.4 970.1 +45.7
15 18.01 СВ 4 н/о н/о +35.4 +8.3 19 +34 +34 очень
жарко
1006.1 969.8
17 18.01 СВ 3 н/о н/о +30.8 +8.5 25 +30 +30 жарко 1005.8 969.5
18 18.01 СВ 2 н/о н/о +30.2 +7.4 24 +29 +29 жарко 1006.0 969.7
20 18.01 ЮВ 2 н/о н/о +31.5 +8.5 24 +30 +30 жарко 1007.8 971.5
21 18.01 ЮВ 2 н/о н/о +31.3 +8.3 24 +30 +30 жарко 1008.2 971.9
23 18.01 В 2 50 км 1/0
[Ac cast]
+37.1 +6.2 15 +35 +41 очень
жарко
1009.3 972.9
00 19.01 СВ 3 н/о н/о +38.5 +6.3 14 +36 +36 очень
жарко
1009.3 972.9
02 19.01 В 7 н/о н/о +42.9 +4.8 10 +40 +40 очень
жарко
1007.9 971.6 +30.1
03 19.01 В 6 н/о н/о +42.9 +3.3 9 +40 +40 очень
жарко
1007.8 971.5
05 19.01 ЮВ 5 н/о н/о +44.0 +4.1 9 +41 +41 опасность
перегрева
1005.7 969.4
06 19.01 ЮВ 7 н/о н/о +43.1 +4.9 10 +40 +40 очень
жарко
1005.2 969.0
08 19.01 В 9 н/о н/о +42.5 +4.5 10 +39 +39 очень
жарко
1004.9 968.7
09 19.01 В 7 н/о н/о +41.7 +3.9 10 +39 +39 очень
жарко
1005.4 969.2
11 19.01 В 6 н/о н/о +38.8 +1.7 10 +35 +35 очень
жарко
1007.3 971.0
12 19.01 В 5 н/о н/о +38.0 +2.4 11 +35 +35 очень
жарко
1007.6 971.3
14 19.01 В 3 н/о н/о +33.3 +2.2 14 +30 +30 жарко 1008.6 972.2 +45.3
15 19.01 В 3 н/о н/о +32.4 +2.5 15 +30 +30 жарко 1008.4 972.1
17 19.01 штиль 0 н/о н/о +27.8 +4.2 22 +26 +26 жарко 1007.7 971.4
18 19.01 штиль 0 н/о н/о +27.0 +3.5 22 +26 +26 жарко 1007.7 971.4
20 19.01 З 2 н/о н/о +24.9 +4.1 26 +24 +24 комфорт 1008.4 972.0
21 19.01 ЮЗ 2 н/о н/о +26.4 +4.8 25 +26 +26 жарко 1008.8 972.5
23 19.01 СВ 5 50 км 1/0
[Ac cast]
+37.3 +3.1 12 +34 +38 очень
жарко
1009.9 973.5
00 20.01 СВ 5 н/о н/о +38.8 +3.1 11 +36 +36 очень
жарко
1010.0 973.6
02 20.01 В 8 50 км ясно +41.7 +0.8 8 +38 +41 очень
жарко
1008.8 972.4 +24.6
03 20.01 В 9 н/о н/о +42.3 +1.2 8 +39 +39 очень
жарко
1008.1 971.8
05 20.01 В 6 н/о н/о +43.6 +0.3 7 +40 +40 очень
жарко
1005.9 969.6
06 20.01 В 9 н/о н/о +43.3 +0.1 7 +40 +40 очень
жарко
1005.5 969.3
08 20.01 В 7 н/о н/о +42.4 +1.3 8 +39 +39 очень
жарко
1004.8 968.6
09 20.01 В 9 н/о н/о +41.7 +0.8 8 +38 +38 очень
жарко
1005.3 969.1
11 20.01 В 4 н/о н/о +37.5 +2.1 11 +34 +34 очень
жарко
1007.4 971.1
12 20.01 В 4 н/о н/о +36.8 +2.8 12 +34 +34 очень
жарко
1007.6 971.3
14 20.01 В 3 н/о н/о +32.9 +3.8 16 +30 +30 жарко 1007.9 971.6 +44.6
15 20.01 В 3 н/о н/о +31.8 +3.8 17 +29 +29 жарко 1007.6 971.3
17 20.01 СВ 3 н/о н/о +29.3 +3.3 19 +27 +27 жарко 1006.7 970.4
18 20.01 СВ 3 н/о н/о +28.7 +3.5 20 +27 +27 жарко 1006.7 970.4
20 20.01 СВ 3 н/о н/о +28.3 +1.7 18 +26 +26 жарко 1007.6 971.3
21 20.01 СВ 3 н/о н/о +28.5 +1.1 17 +26 +26 жарко 1008.0 971.7
23 20.01 СВ 5 50 км ясно +36.0 +5.3 15 +33 +37 жарко 1008.7 972.3
00 21.01 СВ 6 н/о н/о +36.7 +2.7 12 +33 +33 жарко 1008.7 972.4
02 21.01 СВ 8 н/о н/о +40.6 +1.6 9 +37 +37 очень
жарко
1007.9 971.6 +26.1
03 21.01 СВ 8 н/о н/о +40.6 +1.6 9 +37 +37 очень
жарко
1007.4 971.1
05 21.01 В 10 н/о н/о +41.7 -3.1 6 +38 +38 очень
жарко
1005.4 969.2
06 21.01 СВ 9 н/о н/о +42.3 -0.6 7 +38 +38 очень
жарко
1005.1 968.9
08 21.01 СВ 7 н/о н/о +41.4 +0.5 8 +38 +38 очень
жарко
1004.3 968.1
09 21.01 В 6 н/о н/о +40.8 +1.7 9 +37 +37 очень
жарко
1004.7 968.5
11 21.01 В 3 н/о н/о +36.7 +4.9 14 +34 +34 очень
жарко
1006.5 970.2
12 21.01 В 3 н/о н/о +36.0 +4.3 14 +33 +33 жарко 1006.9 970.6
14 21.01 В 3 н/о н/о +32.5 +4.3 17 +30 +30 жарко 1007.5 971.2 +43.1
15 21.01 В 3 н/о н/о +31.8 +4.6 18 +30 +30 жарко 1007.3 971.0
17 21.01 СВ 2 н/о н/о +28.1 +3.7 21 +27 +27 жарко 1007.2 970.9
18 21.01 С 2 н/о н/о +27.4 +3.8 22 +26 +26 жарко 1007.1 970.8
20 21.01 С 3 н/о н/о +27.2 +4.9 24 +26 +26 жарко 1007.8 971.5
21 21.01 СВ 2 н/о н/о +27.7 +4.7 23 +26 +26 жарко 1008.2 971.9
23 21.01 С 8 50 км ясно +36.7 +3.8 13 +34 +35 очень
жарко
1009.0 972.6
00 22.01 С 8 н/о н/о +38.0 +3.7 12 +35 +35 очень
жарко
1008.8 972.5
02 22.01 В 6 50 км ясно +41.0 +3.4 10 +38 +46 очень
жарко
1007.6 971.3 +26.9
03 22.01 СВ 8 н/о н/о +41.4 +3.7 10 +38 +38 очень
жарко
1007.0 970.7
05 22.01 В 8 н/о н/о +42.0 +4.1 10 +39 +39 очень
жарко
1005.1 968.9
06 22.01 СВ 9 н/о н/о +43.5 +3.7 9 +40 +40 очень
жарко
1004.7 968.5
08 22.01 В 7 н/о н/о +41.4 +3.7 10 +38 +38 очень
жарко
1004.2 968.0
09 22.01 СВ 8 н/о н/о +41.1 +3.4 10 +38 +38 очень
жарко
1004.4 968.2
11 22.01 В 5 н/о н/о +37.9 +4.7 13 +35 +35 очень
жарко
1006.0 969.7
12 22.01 В 4 н/о н/о +37.2 +5.3 14 +34 +34 очень
жарко
1006.3 970.0
14 22.01 В 3 н/о н/о +33.8 +6.2 18 +32 +32 жарко 1006.6 970.3 +43.9
15 22.01 В 3 н/о н/о +33.0 +7.1 20 +31 +31 жарко 1006.6 970.3
17 22.01 В 3 н/о н/о +29.3 +7.2 25 +28 +28 жарко 1006.4 970.1
18 22.01 В 2 н/о н/о +28.7 +6.7 25 +28 +28 жарко 1006.5 970.2
20 22.01 СВ 3 н/о н/о +28.1 +6.2 25 +27 +27 жарко 1007.5 971.2
21 22.01 СВ 3 н/о н/о +28.9 +5.7 23 +28 +28 жарко 1007.9 971.6
23 22.01 С 5 50 км 1/0
[Ci fib]
+37.6 +8.4 17 +36 +39 очень
жарко
1008.8 972.4
00 23.01 С 6 н/о н/о +38.4 +7.2 15 +36 +36 очень
жарко
1008.3 972.0
02 23.01 В 5 50 км 1/1
[Cu hum]
+41.5 +5.1 11 +39 +50 очень
жарко
1006.7 970.4 +27.3
03 23.01 СВ 7 н/о н/о +41.6 +3.8 10 +38 +38 очень
жарко
1006.2 969.9
05 23.01 В 9 н/о н/о +43.8 +4.0 9 +41 +41 опасность
перегрева
1004.1 967.9
06 23.01 В 9 н/о н/о +42.9 +3.3 9 +40 +40 очень
жарко
1003.8 967.7
08 23.01 В 8 н/о н/о +41.7 +0.8 8 +38 +38 очень
жарко
1002.9 966.7
09 23.01 В 8 н/о н/о +41.5 +2.3 9 +38 +38 очень
жарко
1003.0 966.9
11 23.01 В 5 н/о н/о +38.2 +2.6 11 +35 +35 очень
жарко
1004.2 968.0
12 23.01 В 4 н/о н/о +37.3 +1.9 11 +34 +34 очень
жарко
1004.6 968.4
14 23.01 В 3 н/о н/о +32.3 +3.3 16 +30 +30 жарко 1005.3 969.1 +44.1
15 23.01 В 3 н/о н/о +32.1 +4.0 17 +30 +30 жарко 1005.3 969.1
18 23.01 СВ 3 н/о н/о +30.7 +6.6 22 +29 +29 жарко 1004.9 968.7
20 23.01 СВ 2 н/о н/о +27.6 +6.4 26 +27 +27 жарко 1005.6 969.3
21 23.01 СВ 2 н/о н/о +27.6 +5.2 24 +27 +27 жарко 1005.9 969.6
23 23.01 С 6 н/о н/о +37.3 +8.2 17 +35 +35 очень
жарко
1005.9 969.6
00 24.01 С 6 н/о н/о +39.5 +6.0 13 +37 +37 очень
жарко
1005.7 969.5
03 24.01 СВ 9 н/о н/о +42.3 +4.3 10 +39 +39 очень
жарко
1004.3 968.1
06 24.01 В 7 н/о н/о +43.7 +2.2 8 +40 +40 очень
жарко
1002.0 966.0
09 24.01 СВ 8 н/о н/о +41.6 +2.3 9 +38 +38 очень
жарко
1001.9 965.9

 

Местоположение метеостанции Джервойс (Северная территория, Австралия): широта -22.95 долгота 136.15 высота над уровнем моря 329 м.

В архиве по умолчанию представлена погода в Джервойсе за последнюю неделю. Архивные данные за месяц целиком и за предыдущие месяцы, начиная с января 2011 года, Вы можете получить, выбрав интересующий диапазон дат из раскрывающегося списка и нажав кнопку "Ввод!".


*Определитесь, кто Вы:
робот инопланетянин человек

Внимание! Время в таблицах - всемирное. Для получения местного времени необходимо прибавить поправку, которая равна 9.5 ч.

Смотрите также архив погоды в соседних городах и на ближайших метеорологических станциях:

Погода в Элис-Спрингсе (Северная территория, Австралия) (250 км)
Погода на Виноградной ферма (Северная территория, Австралия) (264 км)
Погода в Камоауиле (Квинсленд, Австралия) (394 км)
Погода в Фосфат-Хилл (Квинсленд, Австралия) (408 км)
Погода в Нью Мэй Даун (Квинсленд, Австралия) (421 км)
Погода в Теннант-Крике (Северная территория, Австралия) (422 км)
Погода на Маунт-Айза (Квинсленд, Австралия) (427 км)
Погода в Бердсвилле (Квинсленд, Австралия) (461 км)
Погода на Озере Джулиус (Квинсленд, Австралия) (486 км)
Погода в Аэропорту Трепелл (Квинсленд, Австралия) (502 км)

Пояснения к столбцам:

Ветер - указаны скорость ветра в м/с - средняя за 10 мин, порывы в срок и между сроками (в фигурных скобках) и направление, откуда дует ветер: С - северный, СВ - северо-восточный, В - восточный, ЮВ - юго-восточный, Ю - южный, ЮЗ - юго-западный, З - западный, СЗ - северо-западный.
Видимость - горизонтальная дальность видимости в метрах или километрах. При видимости от 1 до 10 км при отсутствии осадков обычно наблюдается дымка, при ухудшении видимости до 1 км и менее - туман. В сухую погоду видимость может ухудшаться дымом, пылью или мглою.
Явления - указаны атмосферные явления, наблюдавшиеся в срок или в последний час перед сроком; фигурными скобками обозначены явления, наблюдавшиеся между сроками (за 1-3 часа до срока); квадратными скобками обозначены град или гололедные отложения с указанием их диаметра в мм.
Облачность - указаны через наклонную черту общая и нижняя облачность в баллах и высота нижней границы облаков в метрах; квадратными скобками обозначены формы облаков: Ci - перистые, Cs - перисто-слоистые, Cc - перисто-кучевые, Ac - высококучевые, As - высокослоистые, Sc - слоисто-кучевые, Ns - слоисто-дождевые, Cu - кучевые, Cb - кучево-дождевые. Подробнее классификацию облаков см. в Атласе облаков (PDF).
T - Температура воздуха - температура, измеренная на высоте 2 м над землей.
Td - Температура точки росы - температура, при понижении до которой содержащийся в воздухе водяной пар достигнет насыщения.
f - Относительная влажность воздуха - влажноcть воздуха, измеренная на высоте 2 м над землей.
Te - Эффективная температура - температура, которую ощущает одетый по сезону человек в тени. Характеристика душности погоды. При расчете учитывается влияние влажности воздуха и скорости ветра на теплоощущения человека.
Tes - Эффективная температура на солнце - температура, которую ощущает человек, с поправкой на солнечный нагрев. Характеристика знойности погоды. Зависит от высоты солнца над горизонтом, облачности и скорости ветра. Ночью, в пасмурную погоду, а также при ветре 12 м/с и более поправка равна нулю.
P - Атмосферное давление - приведенное к уровню моря атмосферное давление.
Po - Атмосферное давление - измеренное на уровне метеостанции атмосферное давление.
Tmin - Минимальная температура - минимум температуры воздуха на высоте 2 м над землей.
Tmax - Максимальная температура - максимум температуры воздуха на высоте 2 м над землей.
R - Количество осадков - Количество выпавших осадков за период времени, мм. При наведении курсора мыши на число - период времени, за который выпало указанное количество осадков.
R24 - Количество осадков - Количество выпавших осадков за 24 часа, мм.
S - Снежный покров - Высота снежного покрова, см. При наведении курсора мыши на число - состояние снежного покрова и степень покрытия местности в баллах.